GW5610 Weather Reports


time (UTC)temp
C
wind
direction
speed
KPH
gust
KPH
rain 1hr
cm
rain 24hr
cm
rain mn
cm
humidity
%
barometer
mb
20260508034053 10 6 6.4 12.9 0.00 0.15 0.13 54 1011.3
20260508033554 10 339 4.8 12.9 0.00 0.15 0.13 54 1011.3
20260508033053 10 339 4.8 12.9 0.00 0.15 0.13 54 1011.3
20260508032554 10 336 4.8 11.3 0.00 0.15 0.13 54 1011.4
20260508032051 10 335 4.8 16.1 0.00 0.15 0.13 54 1011.3
20260508031549 10 333 6.4 16.1 0.00 0.15 0.13 54 1011.2
20260508031309 10 348 4.8 14.5 0.00 0.18 0.13 54 1011.2
20260508030806 10 346 4.8 11.3 0.00 0.18 0.13 54 1011.1
20260508030047 10 344 4.8 11.3 0.00 0.18 0.13 54 1011.1
20260508025807 10 341 4.8 11.3 0.00 0.20 0.13 54 1011.0
20260508025047 10 338 4.8 11.3 0.00 0.20 0.13 54 1011.0
20260508024814 10 339 4.8 11.3 0.00 0.20 0.13 54 1010.8
20260508024310 10 337 4.8 8.0 0.00 0.20 0.13 53 1010.8
20260508023542 11 337 4.8 8.0 0.00 0.23 0.13 53 1010.8
20260508023036 11 335 4.8 11.3 0.00 0.23 0.13 53 1010.7
20260508023013 11 335 4.8 11.3 0.00 0.28 0.13 53 1010.7
20260508022024 11 334 4.8 8.0 0.00 0.28 0.13 54 1010.7
20260508021518 11 333 4.8 11.3 0.00 0.28 0.13 52 1010.6
20260508021011 11 331 4.8 11.3 0.00 0.28 0.13 53 1010.5
20260508020727 11 329 8.0 22.5 0.00 0.28 0.13 53 1010.5
20260508020219 11 332 11.3 22.5 0.00 0.28 0.13 51 1010.3
20260508015941 11 333 14.5 25.7 0.00 0.28 0.13 51 1010.3
20260508014947 11 316 14.5 25.7 0.00 0.28 0.13 50 1010.2
20260508014442 11 312 14.5 30.6 0.00 0.28 0.13 51 1010.2
20260508013936 11 318 14.5 30.6 0.00 0.28 0.13 51 1010.0
20260508013430 11 328 12.9 22.5 0.00 0.28 0.13 53 1009.9
20260508013147 11 317 12.9 22.5 0.00 0.28 0.13 53 1009.8
20260508012418 12 318 11.3 20.9 0.00 0.28 0.13 55 1009.8
20260508011912 12 321 11.3 20.9 0.00 0.28 0.13 55 1009.6
20260508011625 12 337 11.3 20.9 0.00 0.28 0.13 54 1009.6
20260508010900 12 349 11.3 20.9 0.00 0.28 0.13 54 1009.5
20260508010614 12 337 11.3 22.5 0.00 0.28 0.13 54 1009.5
20260508010114 12 333 9.7 22.5 0.00 0.28 0.13 55 1009.4
20260508005341 12 343 9.7 19.3 0.00 0.28 0.13 56 1009.2
20260508004836 12 337 11.3 24.1 0.00 0.28 0.13 55 1009.2
20260508004550 13 45 11.3 24.1 0.00 0.28 0.13 54 1008.9
20260508003824 13 344 11.3 19.3 0.00 0.28 0.13 54 1008.9
20260508003318 13 328 11.3 19.3 0.00 0.28 0.13 54 1008.9
20260508002815 13 243 11.3 27.4 0.00 0.28 0.13 54 1008.9
20260508002535 13 335 11.3 27.4 0.00 0.28 0.13 55 1008.8
20260508001815 13 312 8.0 19.3 0.00 0.28 0.13 57 1008.7
20260508001313 13 331 9.7 17.7 0.00 0.28 0.13 60 1008.7
20260508000812 13 331 11.3 19.3 0.00 0.28 0.13 59 1008.7
20260508000312 13 325 8.0 19.3 0.00 0.28 0.13 62 1008.6
20260507235813 13 267 9.7 17.7 0.00 0.28 0.13 68 1008.5
20260507235313 13 317 9.7 17.7 0.00 0.28 0.13 69 1008.4
20260507235301 13 318 8.0 12.9 0.00 0.28 0.13 78 1008.2
20260507234313 13 0 6.4 12.9 0.00 0.28 0.13 83 1008.2
20260507234033 13 45 6.4 14.5 0.00 0.28 0.13 83 1008.2
20260507233313 13 45 8.0 16.1 0.00 0.28 0.13 83 1008.2
20260507232814 13 45 11.3 17.7 0.00 0.28 0.13 83 1008.0
20260507232311 13 270 12.9 20.9 0.00 0.28 0.13 83 1008.0
20260507231812 13 269 12.9 20.9 0.00 0.28 0.13 82 1007.8
20260507231312 13 279 12.9 20.9 0.00 0.28 0.13 82 1007.8
20260507230805 13 273 14.5 22.5 0.00 0.28 0.13 82 1007.7
20260507230305 14 255 16.1 22.5 0.00 0.28 0.13 82 1007.7
20260507225804 13 249 16.1 22.5 0.00 0.28 0.13 81 1007.6
20260507225306 14 264 17.7 25.7 0.00 0.28 0.13 82 1007.7
20260507225255 14 258 17.7 25.7 0.00 0.28 0.13 81 1007.6
20260507224305 14 252 16.1 24.1 0.00 0.28 0.13 81 1007.5
20260507223805 14 264 16.1 25.7 0.00 0.28 0.13 82 1007.5
20260507223305 14 272 16.1 25.7 0.00 0.28 0.13 82 1007.4
20260507223022 14 272 17.7 27.4 0.00 0.28 0.13 80 1007.2
20260507222306 14 257 17.7 27.4 0.00 0.28 0.13 80 1007.2
20260507221805 15 250 17.7 27.4 0.00 0.28 0.13 80 1007.1
20260507221303 15 233 16.1 30.6 0.00 0.28 0.13 81 1007.0
20260507220803 15 228 16.1 30.6 0.00 0.28 0.13 78 1007.0
20260507220525 15 269 14.5 22.5 0.00 0.28 0.13 82 1006.9
20260507215802 14 266 11.3 22.5 0.00 0.28 0.13 83 1006.9
20260507215306 13 234 9.7 24.1 0.00 0.28 0.13 82 1006.9
20260507214803 13 251 11.3 24.1 0.00 0.28 0.13 82 1006.8
20260507214303 13 219 12.9 25.7 0.00 0.28 0.13 82 1006.8
20260507213802 13 240 14.5 25.7 0.00 0.28 0.13 81 1006.8
20260507213302 13 249 16.1 24.1 0.00 0.28 0.13 81 1006.9
20260507212802 14 223 14.5 22.5 0.00 0.28 0.13 81 1006.9
20260507212306 13 226 11.3 17.7 0.00 0.28 0.13 82 1006.9
20260507211802 13 218 12.9 24.1 0.00 0.28 0.13 81 1006.8
20260507211302 13 214 14.5 24.1 0.00 0.28 0.13 80 1006.8
20260507210803 14 270 12.9 24.1 0.00 0.28 0.13 80 1006.8
20260507210522 13 45 14.5 20.9 0.00 0.28 0.13 81 1006.8
20260507205802 13 200 12.9 20.9 0.00 0.28 0.13 81 1006.8
20260507205522 14 223 11.3 20.9 0.00 0.28 0.13 82 1006.9
20260507204802 14 269 11.3 20.9 0.00 0.28 0.13 81 1006.8
20260507204302 13 252 12.9 20.9 0.00 0.28 0.13 82 1006.8
20260507203802 13 240 12.9 20.9 0.00 0.28 0.13 80 1006.9
20260507203302 14 254 14.5 25.7 0.00 0.28 0.13 81 1007.0
20260507202803 14 266 17.7 27.4 0.00 0.28 0.13 80 1006.9
20260507202523 14 255 17.7 27.4 0.00 0.28 0.13 82 1007.0
20260507201802 14 256 17.7 32.2 0.00 0.28 0.13 82 1007.0
20260507201520 13 204 17.7 32.2 0.00 0.28 0.13 81 1007.1
20260507200750 13 252 17.7 27.4 0.00 0.28 0.13 83 1007.0
20260507200244 13 230 16.1 27.4 0.00 0.28 0.13 83 1007.2
20260507195737 12 212 16.1 24.1 0.00 0.28 0.13 83 1007.4
20260507195231 13 258 16.1 25.7 0.00 0.28 0.13 82 1007.5
20260507194725 13 216 14.5 25.7 0.00 0.28 0.13 82 1007.5
20260507194220 14 262 14.5 24.1 0.00 0.28 0.13 83 1007.5
20260507193714 13 266 14.5 24.1 0.00 0.28 0.13 83 1007.6
20260507193207 13 256 14.5 20.9 0.00 0.28 0.13 85 1007.7
20260507192702 12 247 14.5 22.5 0.00 0.28 0.13 84 1007.9
20260507192156 12 255 14.5 22.5 0.00 0.28 0.13 84 1007.9
20260507191650 12 250 14.5 22.5 0.00 0.28 0.13 85 1007.9
20260507191143 12 256 14.5 22.5 0.00 0.28 0.13 84 1007.9
20260507190637 12 266 14.5 25.7 0.00 0.28 0.13 85 1008.1
20260507190357 12 245 12.9 25.7 0.00 0.28 0.13 85 1008.1
20260507185856 13 264 11.3 19.3 0.00 0.28 0.13 85 1008.0
20260507185120 12 233 11.3 17.7 0.00 0.28 0.13 85 1008.2
20260507184614 12 258 8.0 17.7 0.00 0.28 0.13 86 1008.4
20260507184107 12 264 6.4 12.9 0.00 0.28 0.13 85 1008.2
20260507184045 11 193 4.8 14.5 0.00 0.28 0.13 85 1008.2
20260507183321 11 185 4.8 14.5 0.00 0.28 0.13 86 1008.3
20260507182550 11 168 6.4 12.9 0.00 0.28 0.13 85 1008.2
20260507182044 11 166 4.8 12.9 0.00 0.28 0.13 86 1008.3
20260507181537 11 164 4.8 9.7 0.00 0.28 0.13 85 1008.4
20260507181031 11 164 3.2 9.7 0.00 0.28 0.13 86 1008.5
20260507180745 11 163 3.2 12.9 0.00 0.28 0.13 86 1008.5
20260507180020 11 163 3.2 12.9 0.00 0.28 0.13 86 1008.4
20260507175513 11 159 4.8 11.3 0.00 0.28 0.13 86 1008.6
20260507175234 11 156 3.2 11.3 0.00 0.28 0.13 85 1008.5
20260507174502 11 64 1.6 6.4 0.00 0.28 0.13 86 1008.5
20260507173956 11 61 1.6 4.8 0.00 0.28 0.13 86 1008.5
20260507173450 11 60 1.6 4.8 0.00 0.28 0.13 86 1008.6
20260507172944 11 60 1.6 4.8 0.00 0.28 0.13 86 1008.8
20260507172437 11 58 1.6 4.8 0.00 0.28 0.13 85 1008.8
20260507171931 11 58 0.0 3.2 0.00 0.28 0.13 86 1008.8
20260507171431 11 58 0.0 4.8 0.00 0.28 0.13 86 1009.0
20260507171153 11 57 1.6 6.4 0.00 0.28 0.13 86 1008.9
20260507170428 11 56 1.6 6.4 0.00 0.28 0.13 86 1009.0
20260507165928 11 54 1.6 4.8 0.03 0.28 0.13 86 1009.0
20260507165427 11 50 1.6 3.2 0.03 0.28 0.13 86 1009.3
20260507164928 10 50 1.6 4.8 0.03 0.28 0.13 86 1009.2
20260507164428 10 50 1.6 4.8 0.03 0.28 0.13 86 1009.7
20260507163927 10 50 1.6 6.4 0.03 0.28 0.13 86 1009.7
20260507163427 10 50 3.2 8.0 0.03 0.28 0.13 86 1009.4
20260507163153 10 45 3.2 9.7 0.03 0.28 0.13 86 1009.6
20260507162424 10 50 3.2 9.7 0.03 0.28 0.13 86 1009.6
20260507161924 10 45 3.2 6.4 0.03 0.28 0.13 86 1009.7
20260507161648 10 40 3.2 6.4 0.03 0.28 0.13 86 1009.7
20260507160922 10 40 1.6 4.8 0.03 0.28 0.13 85 1009.9
20260507160645 10 40 1.6 9.7 0.03 0.28 0.13 85 1009.9
20260507155922 10 40 3.2 9.7 0.00 0.25 0.10 85 1010.1
20260507155422 10 104 4.8 8.0 0.00 0.25 0.10 85 1009.8
20260507154919 10 97 4.8 8.0 0.00 0.25 0.10 86 1009.6
20260507154642 10 79 4.8 12.9 0.00 0.25 0.10 85 1009.9
20260507153920 10 78 4.8 12.9 0.03 0.25 0.10 85 1010.0
20260507153421 9 90 4.8 8.0 0.03 0.25 0.10 86 1010.0
20260507152921 9 89 4.8 14.5 0.03 0.25 0.10 85 1010.0
20260507152640 9 87 3.2 14.5 0.05 0.25 0.10 85 1010.1
20260507151919 9 77 3.2 14.5 0.05 0.25 0.10 85 1010.2
20260507151419 9 89 4.8 9.7 0.08 0.25 0.10 85 1010.1
20260507150919 9 141 3.2 8.0 0.08 0.25 0.10 85 1010.1
20260507150643 9 98 3.2 8.0 0.08 0.25 0.10 85 1010.3
20260507145920 9 98 4.8 8.0 0.08 0.25 0.10 86 1010.2
20260507145653 9 98 4.8 8.0 0.08 0.25 0.10 86 1009.9
20260507144920 9 86 3.2 8.0 0.08 0.25 0.10 86 1009.9
20260507144418 9 83 3.2 6.4 0.08 0.25 0.10 86 1010.1
20260507144135 10 83 3.2 8.0 0.05 0.23 0.10 86 1010.3
20260507143416 10 83 3.2 9.7 0.05 0.23 0.08 86 1010.2
20260507142916 10 87 4.8 9.7 0.05 0.23 0.08 86 1009.8
20260507142416 10 84 3.2 16.1 0.03 0.20 0.05 86 1009.9
20260507142140 10 77 3.2 16.1 0.03 0.20 0.05 86 1010.1
20260507141415 10 86 3.2 9.7 0.00 0.18 0.03 85 1010.2
20260507140915 10 85 4.8 14.5 0.00 0.18 0.03 86 1010.2
20260507140416 10 83 3.2 14.5 0.00 0.18 0.03 86 1010.2
20260507135910 10 87 3.2 9.7 0.00 0.18 0.03 86 1010.4
20260507135404 10 84 3.2 9.7 0.00 0.18 0.03 85 1010.4
20260507135120 10 72 3.2 9.7 0.00 0.20 0.03 85 1010.4
20260507134352 10 81 3.2 14.5 0.00 0.20 0.03 85 1010.4
20260507134104 10 79 4.8 9.7 0.00 0.23 0.03 85 1010.6
20260507133340 10 83 4.8 9.7 0.00 0.23 0.03 86 1010.3
20260507132834 10 78 3.2 11.3 0.00 0.23 0.03 86 1010.5
20260507132327 10 55 3.2 11.3 0.00 0.23 0.03 86 1010.4
20260507131821 10 79 3.2 9.7 0.00 0.25 0.03 86 1010.4
20260507131315 10 82 3.2 14.5 0.00 0.25 0.03 86 1010.4
20260507130810 10 82 3.2 14.5 0.00 0.25 0.03 86 1010.4
20260507130304 10 81 3.2 9.7 0.00 0.28 0.03 86 1010.5
20260507125758 10 78 3.2 8.0 0.00 0.28 0.03 86 1010.4
20260507125252 10 91 3.2 8.0 0.00 0.28 0.03 86 1010.5
20260507124746 10 91 3.2 8.0 0.00 0.28 0.03 86 1010.3
20260507124240 10 91 3.2 12.9 0.00 0.28 0.03 86 1010.2
20260507123734 10 91 4.8 14.5 0.00 0.28 0.03 86 1010.3
20260507123228 10 79 3.2 12.9 0.00 0.28 0.03 86 1010.4
20260507122722 11 73 4.8 11.3 0.00 0.28 0.03 86 1010.3
20260507122216 11 90 4.8 16.1 0.00 0.28 0.03 86 1010.4
20260507121710 11 87 4.8 16.1 0.00 0.28 0.03 86 1010.2
20260507121204 10 83 3.2 14.5 0.00 0.30 0.03 86 1010.2
20260507120658 11 83 4.8 16.1 0.00 0.33 0.03 86 1010.4
20260507120414 11 79 4.8 16.1 0.00 0.33 0.03 86 1010.4
20260507115905 11 86 3.2 12.9 0.00 0.33 0.03 86 1010.2
20260507115140 11 87 3.2 12.9 0.00 0.33 0.03 86 1010.2
20260507115122 11 85 3.2 12.9 0.00 0.33 0.03 86 1010.0
20260507114128 11 89 3.2 12.9 0.00 0.36 0.03 86 1010.1
20260507113622 11 102 3.2 12.9 0.00 0.36 0.03 86 1010.1
20260507113116 11 82 4.8 17.7 0.00 0.36 0.03 86 1010.2
20260507112610 11 77 6.4 17.7 0.00 0.36 0.03 86 1010.1
20260507112104 11 105 6.4 17.7 0.00 0.36 0.03 85 1010.1
20260507111603 11 86 4.8 16.1 0.00 0.36 0.03 85 1010.0
20260507111102 11 87 4.8 14.5 0.00 0.36 0.03 85 1009.9
20260507110807 11 85 3.2 8.0 0.00 0.36 0.03 85 1009.9
20260507110653 11 81 3.2 14.5 0.00 0.36 0.03 85 1010.1
20260507105601 11 89 3.2 16.1 0.00 0.36 0.03 85 1009.9
20260507105101 11 86 3.2 16.1 0.00 0.36 0.03 85 1009.7
20260507104559 11 81 4.8 8.0 0.00 0.36 0.03 85 1009.4
20260507104057 11 87 4.8 8.0 0.00 0.36 0.03 85 1009.5
20260507103557 11 89 4.8 8.0 0.00 0.36 0.03 85 1009.4
20260507103056 11 87 4.8 8.0 0.00 0.36 0.03 85 1009.4
20260507102558 11 87 4.8 8.0 0.00 0.36 0.03 85 1009.3
20260507102542 12 86 4.8 8.0 0.00 0.36 0.03 85 1009.2
20260507101554 12 82 1.6 6.4 0.00 0.36 0.03 85 1009.3
20260507101312 12 79 1.6 4.8 0.00 0.36 0.03 85 1009.3
20260507100552 12 79 1.6 4.8 0.00 0.36 0.03 85 1009.2
20260507100052 12 79 1.6 6.4 0.00 0.36 0.03 85 1009.4
20260507095550 13 79 3.2 6.4 0.00 0.36 0.03 85 1009.3
20260507095048 13 66 1.6 4.8 0.00 0.36 0.03 85 1009.3
20260507094548 13 66 1.6 8.0 0.00 0.36 0.03 85 1009.4
20260507094049 13 66 4.8 12.9 0.00 0.36 0.03 85 1009.3
20260507093549 13 61 6.4 14.5 0.00 0.36 0.03 85 1009.4
20260507093048 13 60 6.4 14.5 0.00 0.36 0.03 85 1009.4
20260507092548 13 336 4.8 11.3 0.00 0.36 0.03 85 1009.4
20260507092049 13 333 4.8 11.3 0.00 0.36 0.03 85 1009.3
20260507091548 13 331 3.2 6.4 0.00 0.36 0.03 85 1008.9
20260507091048 13 331 3.2 6.4 0.00 0.36 0.03 85 1008.9
20260507091034 13 331 4.8 11.3 0.00 0.36 0.03 85 1009.3
20260507090108 13 331 4.8 9.7 0.00 0.36 0.03 85 1009.4
20260507090048 13 331 3.2 11.3 0.00 0.36 0.03 85 1009.4
20260507085747 13 331 6.4 12.9 0.00 0.36 0.03 85 1009.5
20260507084548 13 331 8.0 12.9 0.00 0.36 0.03 85 1009.6
20260507084048 13 334 4.8 11.3 0.00 0.36 0.03 85 1009.6
20260507083817 13 335 3.2 6.4 0.00 0.36 0.03 85 1009.5
20260507083308 13 334 3.2 4.8 0.00 0.36 0.03 84 1009.3
20260507082549 13 334 1.6 4.8 0.00 0.36 0.03 84 1009.0
20260507082049 14 334 3.2 8.0 0.00 0.36 0.03 84 1008.7
20260507081543 14 334 4.8 12.9 0.00 0.36 0.03 84 1008.8
20260507081043 14 334 4.8 12.9 0.00 0.36 0.03 84 1009.0
20260507080541 14 335 6.4 14.5 0.00 0.36 0.03 84 1009.0
20260507080040 14 335 8.0 14.5 0.00 0.36 0.03 84 1009.2
20260507075540 14 340 8.0 14.5 0.00 0.36 0.03 84 1009.2
20260507075040 14 314 6.4 14.5 0.00 0.36 0.03 84 1009.0
20260507074806 14 309 8.0 17.7 0.00 0.36 0.03 84 1009.0
20260507074308 14 309 11.3 22.5 0.00 0.36 0.03 84 1009.2
20260507073540 14 316 11.3 22.5 0.00 0.36 0.03 84 1008.9
20260507073040 14 324 9.7 19.3 0.00 0.36 0.03 84 1008.8
20260507072538 14 45 11.3 20.9 0.00 0.36 0.03 84 1009.2
20260507072241 14 313 12.9 24.1 0.00 0.36 0.03 84 1009.2
20260507072128 14 45 12.9 24.1 0.00 0.36 0.03 84 1008.9
20260507071038 15 316 14.5 22.5 0.00 0.36 0.03 85 1009.2
20260507070800 15 312 14.5 22.5 0.00 0.36 0.03 84 1009.2
20260507070038 15 262 9.7 17.7 0.00 0.36 0.03 85 1008.9
20260507065537 14 267 6.4 17.7 0.00 0.36 0.03 85 1008.6
20260507065031 15 277 6.4 9.7 0.00 0.36 0.03 85 1008.6
20260507064526 15 277 6.4 9.7 0.00 0.36 0.03 85 1008.8
20260507064020 15 45 8.0 19.3 0.00 0.36 0.03 85 1008.8
20260507063513 15 45 11.3 19.3 0.00 0.36 0.03 85 1009.0
20260507063007 15 272 14.5 22.5 0.00 0.36 0.03 85 1008.6
20260507062502 15 270 16.1 25.7 0.00 0.36 0.03 85 1008.7
20260507061956 15 45 16.1 25.7 0.00 0.36 0.03 85 1008.6
20260507061450 15 309 17.7 30.6 0.03 0.36 0.03 85 1008.8
20260507060944 15 45 19.3 30.6 0.03 0.36 0.03 85 1009.0
20260507060438 15 274 17.7 29.0 0.03 0.36 0.03 85 1009.3
20260507055931 15 45 22.5 37.0 0.03 0.36 0.03 85 1009.2
20260507055644 15 45 24.1 37.0 0.03 0.36 0.03 85 1009.5
20260507054920 15 45 20.9 35.4 0.03 0.36 0.03 85 1009.3
20260507054414 15 309 20.9 32.2 0.03 0.36 0.03 85 1009.5
20260507053908 15 45 22.5 33.8 0.03 0.36 0.03 85 1009.5
20260507053401 15 316 24.1 46.7 0.03 0.36 0.03 84 1009.3
20260507052855 15 45 24.1 46.7 0.03 0.36 0.03 82 1009.3
20260507052349 15 45 20.9 37.0 0.03 0.36 0.03 82 1009.3
20260507051844 15 312 16.1 37.0 0.03 0.36 0.03 81 1009.3
20260507051338 16 333 11.3 19.3 0.00 0.33 0.00 80 1009.3
20260507050831 16 333 11.3 17.7 0.00 0.33 0.00 80 1009.2
20260507050548 16 338 11.3 17.7 0.00 0.33 0.00 80 1009.0
20260507045820 16 325 9.7 17.7 0.00 0.33 0.00 80 1008.9
20260507045314 16 331 9.7 16.1 0.00 0.33 0.00 80 1008.6
20260507045028 16 316 8.0 14.5 0.00 0.33 0.00 80 1008.4
20260507044302 16 274 8.0 11.3 0.00 0.33 0.00 80 1008.3
20260507043756 16 271 6.4 12.9 0.03 0.33 0.00 81 1007.9
20260507043249 16 274 6.4 11.3 0.03 0.33 0.00 81 1008.0
20260507042743 16 45 4.8 9.7 0.03 0.33 0.00 81 1008.2
20260507042238 16 45 6.4 17.7 0.03 0.33 0.00 81 1008.5
20260507042000 16 45 11.3 17.7 0.03 0.33 0.00 81 1009.0
20260507041225 16 312 11.3 19.3 0.05 0.33 0.00 81 1009.0
20260507040726 16 45 9.7 19.3 0.05 0.33 0.00 81 1009.4
20260507040226 16 312 8.0 17.7 0.05 0.33 0.00 81 1009.4
20260507035725 16 45 11.3 17.7 0.08 0.33 0.33 81 1009.0
20260507035225 16 45 11.3 17.7 0.08 0.33 0.33 82 1009.3
20260507034725 16 260 8.0 11.3 0.08 0.33 0.33 82 1009.3
20260507034225 16 258 8.0 11.3 0.08 0.33 0.33 82 1009.3